Location: Mahannah Oil Field
(37.4664°N, 96.6003°W)
Time: 03:37:35
(UTC+00:00)

A-11 Canister half - Pass Details

Date: 30 January 2021
Orbit: 1525 x 1684 km, 47.3° (Epoch: 02 March)

Event Time Altitude Azimuth Distance (km) Brightness Sun altitude
Rises 22:17:15 0° 284° (WNW) 4,682 12.1 15.0°
Reaches altitude 10° 22:20:28 10° 291° (WNW) 3,710 11.6 14.5°
Maximum altitude 22:29:26 47° 3° (N) 1,989 9.5 13.1°
Drops below altitude 10° 22:38:39 10° 76° (ENE) 3,813 10.5 11.5°
Sets 22:42:00 0° 82° (E) 4,821 11.0 11.0°
